Weather History for Durango, CO

Change the Weather History Date:

Sunday, July 28, 2013

  Actual Average Record
Temperature  
Mean Temperature 66 °F 70 °F  
Max Temperature 74 °F 85 °F 94 °F (1979)
Min Temperature 58 °F 54 °F 42 °F (1986)
Degree Days  
Heating Degree Days 0 0  
Month to date heating degree days 0 8  
Since 1 June heating degree days 40 123  
Since 1 July heating degree days 0 8  
Cooling Degree Days 1 5  
Month to date cooling degree days 179 110  
Year to date cooling degree days 234 139  
Since 1 June cooling degree days 234 138  
Growing Degree Days 15 (Base 50)    
Moisture  
Dew Point 56 °F    
Average Humidity 73    
Maximum Humidity 100    
Minimum Humidity 46    
Precipitation  
Precipitation 0.77 in 0.07 in 0.77 in (2013)
Month to date precipitation 2.07 1.48  
Year to date precipitation 5.84 7.55  
Sea Level Pressure  
Sea Level Pressure 30.01 in    
Wind  
Wind Speed 5 mph (NNE)    
Max Wind Speed 22 mph    
Max Gust Speed 28 mph    
Visibility 8 miles    
Events Rain , Thunderstorm    
T = Trace of Precipitation, MM = Missing Value Source: NWS Daily Summary

Daily Weather History Graph

Daily Weather History Graph

Search for Another Location

Airport:

Trip Planner

Search our weather history database for the weather conditions in past years. The results will help you decide how hot, cold, wet, or windy it might be!

Date:

Astronomy

Jul. 28, 2013 Rise Set
Actual Time 6:12 AM MDT 8:21 PM MDT
Civil Twilight 5:43 AM MDT 8:50 PM MDT
Nautical Twilight 5:08 AM MDT 9:26 PM MDT
Astronomical Twilight 4:29 AM MDT 10:04 PM MDT
Moon 11:56 PM MDT (7/28) 12:47 PM MDT (7/28)
Length of Visible Light 15h 06m
Length of Day
14h 08m
Waning Gibbous, 60% of the Moon is Illuminated
Jul 28
Waning Gibbous
Jul 29
Last Quarter
Aug 6
New
Aug 14
First Quarter
Aug 20
Full

Hourly Weather History & Observations

Time (MDT) Temp. Dew Point Humidity Pressure Visibility Wind Dir Wind Speed Gust Speed Precip Events Conditions
12:53 AM 60.1 °F 57.9 °F 93% 29.95 in 10.0 mi East 8.1 mph - 0.02 in Rain Light Rain
1:53 AM 60.1 °F 57.9 °F 93% 29.93 in 10.0 mi ESE 4.6 mph - 0.01 in Rain Light Rain
2:53 AM 60.1 °F 57.9 °F 93% 29.90 in 10.0 mi Calm Calm - 0.02 in   Overcast
3:53 AM 59.0 °F 57.0 °F 93% 29.89 in 10.0 mi Calm Calm - N/A   Scattered Clouds
4:53 AM 57.9 °F 57.0 °F 97% 29.88 in 10.0 mi Calm Calm - N/A   Mostly Cloudy
5:53 AM 59.0 °F 57.0 °F 93% 29.88 in 10.0 mi Calm Calm - N/A   Overcast
6:53 AM 59.0 °F 57.0 °F 93% 29.90 in 10.0 mi Calm Calm - N/A   Overcast
7:53 AM 60.1 °F 57.0 °F 90% 29.91 in 10.0 mi ENE 4.6 mph - N/A   Mostly Cloudy
8:53 AM 63.0 °F 57.0 °F 81% 29.92 in 10.0 mi ESE 4.6 mph - N/A   Mostly Cloudy
9:53 AM 66.0 °F 57.9 °F 75% 29.91 in 10.0 mi ESE 4.6 mph - N/A   Overcast
10:08 AM 66.2 °F 57.2 °F 73% 30.18 in 10.0 mi ESE 3.5 mph - N/A   Overcast
10:26 AM 66.2 °F 57.2 °F 73% 30.18 in 10.0 mi SW 3.5 mph - N/A   Overcast
10:53 AM 68.0 °F 57.0 °F 68% 29.91 in 10.0 mi WSW 3.5 mph - N/A   Overcast
11:53 AM 68.0 °F 55.9 °F 65% 29.94 in 10.0 mi WSW 3.5 mph - N/A   Overcast
12:34 PM 69.8 °F 55.4 °F 60% 30.15 in 10.0 mi Variable 4.6 mph - N/A Thunderstorm Thunderstorm
12:53 PM 69.1 °F 57.0 °F 65% 29.91 in 10.0 mi NNW 8.1 mph - 0.00 in Thunderstorm Overcast
1:18 PM 60.8 °F 57.2 °F 88% 30.16 in 1.8 mi WSW 15.0 mph 19.6 mph 0.12 in Rain , Thunderstorm Heavy Thunderstorms and Rain
1:23 PM 60.8 °F 57.2 °F 88% 30.16 in 0.8 mi WSW 13.8 mph 20.7 mph 0.23 in Rain , Thunderstorm Heavy Thunderstorms and Rain
1:30 PM 62.6 °F 57.2 °F 82% 30.16 in 1.5 mi WSW 11.5 mph 20.7 mph 0.24 in Rain , Thunderstorm Light Thunderstorms and Rain
1:33 PM 64.4 °F 57.2 °F 77% 30.15 in 4.0 mi West 6.9 mph - 0.24 in Rain , Thunderstorm Light Thunderstorms and Rain
1:50 PM 62.6 °F 57.2 °F 82% 30.15 in 2.5 mi North 4.6 mph - 0.32 in Rain Rain
1:53 PM 63.0 °F 57.0 °F 81% 29.94 in 2.0 mi North 6.9 mph - 0.35 in Rain Heavy Rain
1:58 PM 62.6 °F 57.2 °F 82% 30.15 in 1.2 mi Calm Calm - 0.14 in Rain Heavy Rain
2:07 PM 62.6 °F 55.4 °F 77% 30.14 in 2.0 mi NNE 4.6 mph - 0.18 in Rain , Thunderstorm Light Thunderstorms and Rain
2:14 PM 62.6 °F 55.4 °F 77% 30.14 in 8.0 mi ENE 4.6 mph - 0.19 in Rain , Thunderstorm Light Thunderstorms and Rain
2:46 PM 64.4 °F 57.2 °F 77% 30.13 in 1.0 mi Calm Calm - 0.32 in Rain , Thunderstorm Thunderstorms and Rain
2:53 PM 63.0 °F 57.9 °F 84% 29.92 in 0.8 mi SSW 10.4 mph - 0.34 in Rain , Thunderstorm Light Thunderstorms and Rain
2:56 PM 62.6 °F 59.0 °F 88% 30.13 in 2.0 mi South 9.2 mph - 0.00 in Rain , Thunderstorm Light Thunderstorms and Rain
3:03 PM 64.4 °F 59.0 °F 83% 30.13 in 10.0 mi Calm Calm - 0.00 in Thunderstorm Thunderstorm
3:15 PM 68.0 °F 60.8 °F 78% 30.12 in 10.0 mi Calm Calm - 0.00 in   Mostly Cloudy
3:53 PM 69.1 °F 61.0 °F 75% 29.88 in 10.0 mi Calm Calm - 0.00 in   Scattered Clouds
4:53 PM 73.0 °F 51.1 °F 46% 29.86 in 10.0 mi North 20.7 mph 27.6 mph 0.00 in   Mostly Cloudy
5:04 PM 71.6 °F 50.0 °F 46% 30.11 in 10.0 mi North 19.6 mph - N/A   Scattered Clouds
5:30 PM 69.8 °F 48.2 °F 46% 30.11 in 10.0 mi North 20.7 mph 25.3 mph N/A Thunderstorm Mostly Cloudy
5:53 PM 63.0 °F 53.1 °F 70% 29.91 in 5.0 mi North 10.4 mph - 0.04 in Rain , Thunderstorm Rain
5:58 PM 64.4 °F 53.6 °F 68% 30.11 in 7.0 mi NNE 10.4 mph - 0.01 in Rain , Thunderstorm Light Thunderstorms and Rain
6:19 PM 69.8 °F 51.8 °F 53% 30.10 in 10.0 mi North 5.8 mph - 0.01 in   Partly Cloudy
6:53 PM 70.0 °F 54.0 °F 57% 29.87 in 10.0 mi Calm Calm - 0.01 in   Mostly Cloudy
7:53 PM 66.9 °F 55.9 °F 68% 29.88 in 10.0 mi SSW 3.5 mph - N/A   Clear
8:53 PM 64.0 °F 54.0 °F 70% 29.90 in 10.0 mi North 5.8 mph - N/A   Clear
9:53 PM 63.0 °F 55.0 °F 75% 29.93 in 10.0 mi South 4.6 mph - N/A   Overcast
10:53 PM 62.1 °F 55.9 °F 80% 29.94 in 10.0 mi NE 5.8 mph - N/A   Mostly Cloudy
11:53 PM 62.1 °F 55.9 °F 80% 29.95 in 10.0 mi NE 4.6 mph - 0.00 in   Overcast